TimeEST,TemperatureF,Dew PointF,Humidity,Sea Level PressureIn,VisibilityMPH,Wind Direction,Wind SpeedMPH,Gust SpeedMPH,PrecipitationIn,Events,Conditions,WindDirDegrees,DateUTC
12:53 AM,53.1,48.9,86,30.06,9.0,Calm,Calm,-,N/A,,Clear,0,2014-02-11 05:53:00
1:14 AM,50.0,46.4,87,30.06,1.8,Calm,Calm,-,N/A,,Clear,0,2014-02-11 06:14:00
1:32 AM,50.0,46.4,87,30.06,3.0,Calm,Calm,-,N/A,,Clear,0,2014-02-11 06:32:00
1:38 AM,51.8,48.2,88,30.06,1.8,Calm,Calm,-,N/A,,Partly Cloudy,0,2014-02-11 06:38:00
1:41 AM,51.8,48.2,88,30.06,0.8,Calm,Calm,-,N/A,,Mist,0,2014-02-11 06:41:00
1:49 AM,50.0,46.4,87,30.06,1.5,Calm,Calm,-,N/A,,Scattered Clouds,0,2014-02-11 06:49:00
1:51 AM,50.0,46.4,87,30.06,4.0,Calm,Calm,-,N/A,,Scattered Clouds,0,2014-02-11 06:51:00
1:53 AM,51.1,46.9,86,30.06,6.0,Calm,Calm,-,N/A,,Scattered Clouds,0,2014-02-11 06:53:00
2:07 AM,50.0,46.4,87,30.05,8.0,Calm,Calm,-,N/A,,Mostly Cloudy,0,2014-02-11 07:07:00
2:29 AM,50.0,46.4,87,30.05,7.0,Calm,Calm,-,N/A,,Scattered Clouds,0,2014-02-11 07:29:00
2:35 AM,50.0,46.4,87,30.05,1.2,Calm,Calm,-,N/A,,Scattered Clouds,0,2014-02-11 07:35:00
2:37 AM,50.0,46.4,87,30.05,0.8,Calm,Calm,-,N/A,,Mist,0,2014-02-11 07:37:00
2:42 AM,50.0,46.4,87,30.05,0.2,Calm,Calm,-,N/A,Fog,Fog,0,2014-02-11 07:42:00
2:50 AM,48.2,46.4,93,30.04,1.2,Calm,Calm,-,N/A,,Mostly Cloudy,0,2014-02-11 07:50:00
2:51 AM,48.2,46.4,93,30.04,2.0,Calm,Calm,-,N/A,,Mostly Cloudy,0,2014-02-11 07:51:00
2:53 AM,48.9,46.0,90,30.04,4.0,Calm,Calm,-,N/A,,Mostly Cloudy,0,2014-02-11 07:53:00
3:10 AM,48.2,44.6,87,30.04,7.0,Calm,Calm,-,N/A,,Scattered Clouds,0,2014-02-11 08:10:00
3:43 AM,48.2,44.6,87,30.04,7.0,Calm,Calm,-,N/A,,Mostly Cloudy,0,2014-02-11 08:43:00
3:53 AM,48.0,45.0,89,30.04,9.0,Calm,Calm,-,N/A,,Overcast,0,2014-02-11 08:53:00
4:45 AM,48.2,44.6,87,30.05,0.8,Calm,Calm,-,N/A,,Overcast,0,2014-02-11 09:45:00
4:53 AM,48.0,45.0,89,30.05,0.2,Calm,Calm,-,N/A,Fog,Fog,0,2014-02-11 09:53:00
5:36 AM,48.2,46.4,93,30.05,0.2,Calm,Calm,-,N/A,Fog,Fog,0,2014-02-11 10:36:00
5:41 AM,48.2,46.4,93,30.05,0.5,Calm,Calm,-,N/A,Fog,Fog,0,2014-02-11 10:41:00
5:53 AM,48.9,46.0,90,30.06,0.8,Calm,Calm,-,N/A,,Overcast,0,2014-02-11 10:53:00
6:13 AM,50.0,46.4,87,30.06,1.2,Calm,Calm,-,N/A,,Overcast,0,2014-02-11 11:13:00
6:37 AM,50.0,46.4,87,30.07,3.0,Calm,Calm,-,N/A,,Overcast,0,2014-02-11 11:37:00
6:53 AM,50.0,46.9,89,30.08,6.0,Calm,Calm,-,N/A,,Overcast,0,2014-02-11 11:53:00
7:14 AM,50.0,46.4,87,30.08,10.0,Calm,Calm,-,N/A,,Overcast,0,2014-02-11 12:14:00
7:35 AM,50.0,46.4,87,30.09,2.0,East,3.5,-,N/A,,Overcast,100,2014-02-11 12:35:00
7:38 AM,50.0,46.4,87,30.09,2.0,ESE,3.5,-,N/A,,Overcast,110,2014-02-11 12:38:00
7:53 AM,51.1,48.0,89,30.09,2.0,Calm,Calm,-,N/A,,Overcast,0,2014-02-11 12:53:00
8:03 AM,51.8,48.2,88,30.10,0.2,Calm,Calm,-,N/A,,Overcast,0,2014-02-11 13:03:00
8:33 AM,53.6,51.8,94,30.10,0.1,East,3.5,-,N/A,Fog,Fog,100,2014-02-11 13:33:00
8:53 AM,54.0,51.1,90,30.11,0.1,East,6.9,-,N/A,Fog,Fog,100,2014-02-11 13:53:00
9:00 AM,53.6,51.8,94,30.11,0.2,ENE,4.6,-,N/A,Fog,Fog,70,2014-02-11 14:00:00
9:41 AM,55.4,51.8,88,30.13,3.0,Calm,Calm,-,N/A,,Overcast,0,2014-02-11 14:41:00
9:53 AM,55.0,52.0,89,30.12,4.0,ESE,4.6,-,N/A,,Overcast,110,2014-02-11 14:53:00
10:53 AM,57.0,52.0,83,30.14,6.0,Calm,Calm,-,N/A,,Overcast,0,2014-02-11 15:53:00
11:08 AM,57.2,53.6,88,30.13,6.0,SE,3.5,-,N/A,,Overcast,140,2014-02-11 16:08:00
11:25 AM,60.8,53.6,77,30.13,7.0,Calm,Calm,-,N/A,,Overcast,0,2014-02-11 16:25:00
11:53 AM,60.1,53.1,78,30.13,9.0,Calm,Calm,-,N/A,,Overcast,0,2014-02-11 16:53:00
12:53 PM,64.0,52.0,65,30.10,10.0,Calm,Calm,-,N/A,,Mostly Cloudy,0,2014-02-11 17:53:00
1:53 PM,66.9,50.0,54,30.06,10.0,Calm,Calm,-,N/A,,Mostly Cloudy,0,2014-02-11 18:53:00
2:53 PM,66.9,46.9,49,30.06,10.0,Calm,Calm,-,N/A,,Mostly Cloudy,0,2014-02-11 19:53:00
3:53 PM,68.0,46.0,45,30.04,10.0,Calm,Calm,-,N/A,,Mostly Cloudy,0,2014-02-11 20:53:00
4:53 PM,69.1,44.1,40,30.04,10.0,Calm,Calm,-,N/A,,Overcast,0,2014-02-11 21:53:00
5:53 PM,66.9,50.0,54,30.05,10.0,NNE,3.5,-,N/A,,Overcast,20,2014-02-11 22:53:00
6:53 PM,64.9,50.0,58,30.05,10.0,NNE,6.9,-,N/A,,Overcast,30,2014-02-11 23:53:00
7:53 PM,64.9,51.1,61,30.07,10.0,North,4.6,-,N/A,,Overcast,10,2014-02-12 00:53:00
8:53 PM,60.1,46.9,62,30.09,10.0,NE,9.2,-,N/A,,Overcast,40,2014-02-12 01:53:00
9:53 PM,55.9,45.0,67,30.09,10.0,ENE,11.5,-,N/A,,Overcast,70,2014-02-12 02:53:00
10:53 PM,54.0,44.1,69,30.11,10.0,NE,9.2,-,N/A,,Overcast,50,2014-02-12 03:53:00
11:53 PM,52.0,46.0,80,30.09,7.0,NE,6.9,-,0.01,Rain,Light Rain,50,2014-02-12 04:53:00